Retour au catalogue

FENGYUN 1C DEB

ActifSSO
NORAD 29769·DEBRIS·🇨🇳 China

Lancé May 10, 1999 depuis Taiyuan Satellite Launch Center

Loading…

Prochains Passages (prochaines 24 heures)

TLE

FraisSource: Space-Track

Époque: Sep 12, 2026, 16:23 UTC

1 29769U 99025BK  26255.68297514  .00001517  00000-0  77914-3 0  9995
2 29769  99.0876 322.8532 0092376  78.7963 282.3576 14.14705786  5490

Suivez FENGYUN 1C DEB en temps réel avec AllMySat

Download on the App Store